Content
SEND FEEDBACK

Daily
Averages
Monthly
Summary
United Kingdom

INVERNESS, SCOTLAND


Home > Europe > United Kingdom > Scotland
Elevation: 30 feet     Latitude: 57 32N     Longitude: 004 03W

WEATHER
 
SELECT A DAY
Number of Records: 230,642;   Date Range: 7/1/96 - 8/29/14
 
SHARE

PRINT THIS DATA

[ ← Previous Day ]
WEATHER ALMANAC - JANUARY 3, 2013
[ Next Day → ]
[ °C ]   °F
Weather ElementAverageHighLow
Temperature49.2 °F51.8 °F (2:50 am)46.4 °F (3:50 pm)
Dewpoint43.8 °F48.2 °F (12:50 am)41 °F (4:50 am)
Humidity82 %94 % (12:50 am)71 % (4:50 am)
Barometer30.13 in30.24 in (5:20 pm)29.92 in (12:50 am)
Wind Speed15.2 mph20.7 mph (5:50 am)
Weather ElementAverage
Visibility6.2 mi
Wind DirectionWSW (233.4 °)

Weather ElementTotal
Precipitation---
Heating Degree Days15.9 (Base 65)
Averaged from 47 records on January 3, 2013
WEATHER CONDITIONS BREAKOUT
WIND DIRECTION BREAKOUT
WEATHER BY HOUR - JANUARY 3, 2013
[ °C ]   °F
Local TimeTemperatureDewpointHumidityBarometerVisibilityWind DirectionWind SpeedGust SpeedPrecipitationEventsConditions
12:50 AM50.0 °F48.2 °F94 %29.92 in6.2 miWSW (240°)18.4 mphMostly Cloudy
1:20 AM50.0 °F46.4 °F87 %29.92 in6.2 miSW (230°)13.8 mph
1:50 AM50.0 °F46.4 °F87 %29.92 in6.2 miSW (230°)18.4 mphPartly Cloudy
2:20 AM50.0 °F46.4 °F87 %29.92 in6.2 miSW (230°)17.3 mphPartly Cloudy
2:50 AM51.8 °F48.2 °F88 %29.95 in6.2 miSW (230°)16.1 mphRainLight Rain
3:20 AM50.0 °F48.2 °F94 %29.98 in6.2 miWSW (240°)15.0 mphRainLight Rain
3:50 AM48.2 °F46.4 °F93 %29.98 in6.2 miWSW (240°)15.0 mphScattered Clouds
4:20 AM50.0 °F44.6 °F82 %30.01 in6.2 miWSW (250°)16.1 mphPartly Cloudy
4:50 AM50.0 °F41.0 °F71 %30.01 in6.2 miWSW (240°)17.3 mphPartly Cloudy
5:20 AM48.2 °F42.8 °F82 %30.04 in6.2 miWSW (240°)19.6 mphScattered Clouds
5:50 AM48.2 °F41.0 °F76 %30.04 in6.2 miWSW (240°)20.7 mphPartly Cloudy
6:20 AM48.2 °F41.0 °F76 %30.04 in6.2 miWSW (250°)20.7 mphPartly Cloudy
6:50 AM48.2 °F41.0 °F76 %30.06 in6.2 miWSW (250°)19.6 mphPartly Cloudy
7:20 AM48.2 °F41.0 °F76 %30.09 in6.2 miWSW (250°)10.4 mphPartly Cloudy
7:50 AM48.2 °F41.0 °F76 %30.12 in6.2 miWSW (240°)10.4 mphScattered Clouds
8:20 AM48.2 °F41.0 °F76 %30.12 in6.2 miWSW (240°)9.2 mphMostly Cloudy
8:50 AM48.2 °F41.0 °F76 %30.12 in6.2 miWSW (250°)15.0 mphScattered Clouds
9:20 AM48.2 °F41.0 °F76 %30.12 in6.2 miWSW (250°)18.4 mphScattered Clouds
9:50 AM48.2 °F41.0 °F76 %30.12 in6.2 miWSW (250°)18.4 mphPartly Cloudy
10:20 AM48.2 °F41.0 °F76 %30.15 in6.2 miWSW (240°)13.8 mphPartly Cloudy
10:50 AM48.2 °F41.0 °F76 %30.15 in6.2 miWSW (240°)18.4 mphPartly Cloudy
11:20 AM48.2 °F41.0 °F76 %30.18 in6.2 miWSW (240°)13.8 mphPartly Cloudy
11:50 AM50.0 °F41.0 °F71 %30.18 in6.2 miWSW (250°)13.8 mphPartly Cloudy
12:20 PM48.2 °F41.0 °F76 %30.18 in6.2 miWSW (240°)16.1 mphPartly Cloudy
12:50 PM50.0 °F41.0 °F71 %30.18 in6.2 miSW (230°)9.2 mphPartly Cloudy
1:20 PM50.0 °F41.0 °F71 %30.18 in6.2 miSW (220°)9.2 mphPartly Cloudy
1:50 PM50.0 °F41.0 °F71 %30.21 in6.2 miSSW (200°)9.2 mphPartly Cloudy
2:20 PM48.2 °F41.0 °F76 %30.21 in6.2 miSSW (200°)16.1 mphPartly Cloudy
2:50 PM48.2 °F41.0 °F76 %30.21 in6.2 miSW (220°)18.4 mphPartly Cloudy
3:20 PM48.2 °F42.8 °F82 %30.21 in6.2 miSW (220°)17.3 mphPartly Cloudy
3:50 PM46.4 °F42.8 °F87 %30.21 in6.2 miSW (230°)15.0 mphPartly Cloudy
4:20 PM46.4 °F42.8 °F87 %30.21 in6.2 miSW (220°)13.8 mphPartly Cloudy
4:50 PM46.4 °F42.8 °F87 %30.21 in6.2 miSW (230°)12.7 mphPartly Cloudy
5:20 PM46.4 °F42.8 °F87 %30.24 in6.2 miSW (230°)9.2 mphPartly Cloudy
5:50 PM48.2 °F44.6 °F87 %30.24 in6.2 miWSW (240°)11.5 mphPartly Cloudy
6:20 PM48.2 °F44.6 °F87 %30.21 in6.2 miSW (230°)13.8 mphPartly Cloudy
6:50 PM48.2 °F44.6 °F87 %30.21 in6.2 miWSW (240°)13.8 mphPartly Cloudy
7:20 PM48.2 °F46.4 °F93 %30.21 in6.2 miWSW (240°)9.2 mphPartly Cloudy
7:50 PM50.0 °F46.4 °F87 %30.21 in6.2 miWSW (240°)16.1 mphScattered Clouds
8:20 PM51.8 °F48.2 °F88 %30.21 in6.2 miSW (230°)16.1 mphRainLight Rain
8:50 PM51.8 °F48.2 °F88 %30.21 in6.2 miSW (230°)19.6 mphScattered Clouds
9:20 PM51.8 °F48.2 °F88 %30.24 in6.2 miSW (230°)16.1 mphScattered Clouds
9:50 PM51.8 °F48.2 °F88 %30.24 in6.2 miSW (220°)17.3 mphMostly Cloudy
10:20 PM51.8 °F48.2 °F88 %30.24 in6.2 miSW (220°)17.3 mphPartly Cloudy
10:50 PM51.8 °F48.2 °F88 %30.24 in6.2 miSW (220°)13.8 mphRainLight Rain
11:20 PM51.8 °F46.4 °F82 %30.24 in6.2 miSSW (210°)15.0 mphPartly Cloudy
11:50 PM51.8 °F46.4 °F82 %30.24 in6.2 miSW (220°)20.7 mph
Hourly data recorded from EGPE, located miles away from Inverness, Scotland







STORIES FROM OUR PARTNERS